When you browse on this site, cookies collect data to enhance your experience and personalize the content and advertising you see.
Visit our Privacy Policy to learn more. By continuing to use the site, you agree to this use of cookies and data.
  • In Österreich
  • Länderverzeichnis
  • Für 7 Tage
  • Wassertemperatur
  • Wetterkarte
  • News
  • Widgets
  • user-avatar
    Anmelden

    Stündliche Wetter Santander de Quilichao

    Heute, 26 Januar, Sonntag

    Zeit Temperatur Niederschläge Wind Luftdruck Luftfeuchtigkeit
    00:00 +20°C° 0.6 mm 0 m/S 672 mmHg 95%
    01:00 +20°C° 0.6 mm 0 m/S 672 mmHg 95%
    02:00 +20°C° 0.4 mm 0 m/S 672 mmHg 95%
    03:00 +20°C° 0.4 mm 0 m/S 672 mmHg 96%
    04:00 +20°C° 0.4 mm 0 m/S 671 mmHg 96%
    05:00 +20°C° 0.2 mm 0 m/S 672 mmHg 95%
    06:00 +20°C° 0.2 mm 0 m/S 672 mmHg 95%
    07:00 +20°C° 0.2 mm 0 m/S 672 mmHg 95%
    08:00 +22°C° 0.3 mm 0 m/S 673 mmHg 90%
    09:00 +23°C° 0.3 mm 0 m/S 674 mmHg 84%
    10:00 +25°C° 0.3 mm 0 m/S 674 mmHg 79%
    11:00 +27°C° 0.6 mm 1 m/S 674 mmHg 77%
    12:00 +28°C° 0.6 mm 1 m/S 673 mmHg 75%
    13:00 +29°C° 0.6 mm 1 m/S 673 mmHg 73%
    14:00 +28°C° 1.5 mm 1 m/S 672 mmHg 76%
    15:00 +27°C° 1.5 mm 1 m/S 672 mmHg 79%
    16:00 +27°C° 1.5 mm 1 m/S 671 mmHg 82%
    17:00 +23°C° 1 mm 0 m/S 671 mmHg 86%
    18:00 +22°C° 1 mm 0 m/S 671 mmHg 90%
    19:00 +21°C° 1 mm 0 m/S 671 mmHg 94%
    20:00 +21°C° 0.5 mm 0 m/S 672 mmHg 94%
    21:00 +20°C° 0.5 mm 0 m/S 672 mmHg 94%
    22:00 +20°C° 0.5 mm 0 m/S 673 mmHg 94%
    23:00 +20°C° 0.3 mm 0 m/S 672 mmHg 95%

    Morgen, 27 Januar, Montag

    Zeit Temperatur Niederschläge Wind Luftdruck Luftfeuchtigkeit
    00:00 +20°C° 0.3 mm 0 m/S 672 mmHg 95%
    01:00 +20°C° 0.3 mm 0 m/S 672 mmHg 95%
    02:00 +19°C° 0.5 mm 0 m/S 672 mmHg 95%
    03:00 +19°C° 0.5 mm 0 m/S 671 mmHg 96%
    04:00 +19°C° 0.5 mm 0 m/S 671 mmHg 96%
    05:00 +19°C° 0.2 mm 0 m/S 671 mmHg 95%
    06:00 +20°C° 0.2 mm 0 m/S 672 mmHg 95%
    07:00 +20°C° 0.2 mm 0 m/S 672 mmHg 94%
    08:00 +21°C° 0.3 mm 0 m/S 673 mmHg 90%
    09:00 +23°C° 0.3 mm 0 m/S 674 mmHg 86%
    10:00 +26°C° 0.3 mm 1 m/S 674 mmHg 82%
    11:00 +27°C° 0.9 mm 1 m/S 674 mmHg 80%
    12:00 +27°C° 0.9 mm 1 m/S 673 mmHg 78%
    13:00 +28°C° 0.9 mm 1 m/S 673 mmHg 75%
    14:00 +28°C° 1.6 mm 1 m/S 672 mmHg 77%
    15:00 +27°C° 1.6 mm 1 m/S 672 mmHg 79%
    16:00 +25°C° 1.6 mm 0 m/S 671 mmHg 81%
    17:00 +23°C° 1.2 mm 0 m/S 671 mmHg 85%
    18:00 +22°C° 1.2 mm 0 m/S 671 mmHg 89%
    19:00 +21°C° 1.2 mm 0 m/S 672 mmHg 93%
    20:00 +21°C° 0.7 mm 0 m/S 672 mmHg 93%
    21:00 +20°C° 0.7 mm 0 m/S 672 mmHg 93%
    22:00 +22°C° 0.7 mm 1 m/S 673 mmHg 93%
    23:00 +20°C° 0.3 mm 0 m/S 673 mmHg 93%

    übermorgen, 28 Januar, Dienstag

    Zeit Temperatur Niederschläge Wind Luftdruck Luftfeuchtigkeit
    00:00 +20°C° 0.3 mm 0 m/S 672 mmHg 94%
    01:00 +20°C° 0.3 mm 0 m/S 672 mmHg 94%
    02:00 +20°C° 0.2 mm 0 m/S 672 mmHg 94%
    03:00 +20°C° 0.2 mm 0 m/S 671 mmHg 95%
    04:00 +19°C° 0.2 mm 0 m/S 671 mmHg 95%
    05:00 +20°C° 0 mm 0 m/S 671 mmHg 95%
    06:00 +20°C° 0 mm 0 m/S 672 mmHg 94%
    07:00 +20°C° 0 mm 0 m/S 672 mmHg 94%
    08:00 +22°C° 0.1 mm 0 m/S 673 mmHg 88%
    09:00 +23°C° 0.1 mm 0 m/S 673 mmHg 82%
    10:00 +27°C° 0.1 mm 1 m/S 674 mmHg 75%
    11:00 +28°C° 0.2 mm 1 m/S 673 mmHg 72%
    12:00 +29°C° 0.2 mm 1 m/S 673 mmHg 68%
    13:00 +30°C° 0.2 mm 1 m/S 672 mmHg 64%
    14:00 +29°C° 0.8 mm 1 m/S 672 mmHg 69%
    15:00 +28°C° 0.8 mm 1 m/S 671 mmHg 74%
    16:00 +27°C° 0.8 mm 1 m/S 670 mmHg 79%
    17:00 +26°C° 0.8 mm 1 m/S 670 mmHg 84%
    18:00 +22°C° 0.8 mm 0 m/S 670 mmHg 88%
    19:00 +21°C° 0.8 mm 0 m/S 671 mmHg 93%
    20:00 +21°C° 0.4 mm 0 m/S 671 mmHg 93%
    21:00 +20°C° 0.4 mm 0 m/S 671 mmHg 94%
    22:00 +20°C° 0.4 mm 0 m/S 672 mmHg 94%
    23:00 +20°C° 0.2 mm 0 m/S 672 mmHg 94%

    29 Januar, Mittwoch

    Zeit Temperatur Niederschläge Wind Luftdruck Luftfeuchtigkeit
    00:00 +20°C° 0.2 mm 0 m/S 672 mmHg 94%
    01:00 +20°C° 0.2 mm 0 m/S 671 mmHg 94%
    02:00 +20°C° 0.2 mm 0 m/S 671 mmHg 95%
    03:00 +19°C° 0.2 mm 0 m/S 671 mmHg 95%
    04:00 +19°C° 0.2 mm 0 m/S 671 mmHg 95%
    05:00 +19°C° 0.1 mm 0 m/S 671 mmHg 94%
    06:00 +20°C° 0.1 mm 0 m/S 672 mmHg 94%
    07:00 +20°C° 0.1 mm 0 m/S 672 mmHg 93%
    08:00 +22°C° 0.1 mm 0 m/S 673 mmHg 87%
    09:00 +23°C° 0.1 mm 0 m/S 673 mmHg 80%
    10:00 +27°C° 0.1 mm 1 m/S 674 mmHg 74%
    11:00 +28°C° 0.4 mm 1 m/S 673 mmHg 72%
    12:00 +28°C° 0.4 mm 1 m/S 673 mmHg 69%
    13:00 +29°C° 0.4 mm 1 m/S 672 mmHg 67%
    14:00 +28°C° 0.9 mm 1 m/S 671 mmHg 71%
    15:00 +28°C° 0.9 mm 1 m/S 671 mmHg 75%
    16:00 +27°C° 0.9 mm 1 m/S 670 mmHg 79%
    17:00 +23°C° 0.9 mm 0 m/S 670 mmHg 83%
    18:00 +22°C° 0.9 mm 0 m/S 670 mmHg 88%
    19:00 +21°C° 0.9 mm 0 m/S 670 mmHg 93%
    20:00 +20°C° 0.2 mm 0 m/S 671 mmHg 93%
    21:00 +20°C° 0.2 mm 0 m/S 671 mmHg 93%
    22:00 +20°C° 0.2 mm 0 m/S 671 mmHg 93%
    23:00 +19°C° 0 mm 0 m/S 671 mmHg 93%

    30 Januar, Donnerstag

    Zeit Temperatur Niederschläge Wind Luftdruck Luftfeuchtigkeit
    00:00 +19°C° 0 mm 0 m/S 671 mmHg 93%
    01:00 +19°C° 0 mm 0 m/S 670 mmHg 93%
    02:00 +19°C° 0 mm 0 m/S 670 mmHg 93%
    03:00 +18°C° 0 mm 0 m/S 670 mmHg 93%
    04:00 +18°C° 0 mm 0 m/S 670 mmHg 93%
    05:00 +18°C° 0 mm 0 m/S 670 mmHg 92%
    06:00 +19°C° 0 mm 0 m/S 671 mmHg 92%
    07:00 +19°C° 0 mm 0 m/S 671 mmHg 91%
    08:00 +23°C° 0 mm 1 m/S 672 mmHg 84%
    09:00 +25°C° 0 mm 1 m/S 672 mmHg 77%
    10:00 +28°C° 0 mm 1 m/S 673 mmHg 70%
    11:00 +28°C° 0.2 mm 1 m/S 672 mmHg 67%
    12:00 +29°C° 0.2 mm 1 m/S 672 mmHg 64%
    13:00 +30°C° 0.2 mm 1 m/S 671 mmHg 62%
    14:00 +29°C° 0.4 mm 1 m/S 671 mmHg 64%
    15:00 +29°C° 0.4 mm 1 m/S 670 mmHg 66%
    16:00 +29°C° 0.4 mm 1 m/S 669 mmHg 68%
    17:00 +27°C° 0.9 mm 1 m/S 669 mmHg 76%
    18:00 +25°C° 0.9 mm 1 m/S 670 mmHg 84%
    19:00 +23°C° 0.9 mm 1 m/S 670 mmHg 92%
    20:00 +23°C° 0.5 mm 1 m/S 670 mmHg 92%
    21:00 +23°C° 0.5 mm 1 m/S 671 mmHg 92%
    22:00 +22°C° 0.5 mm 1 m/S 671 mmHg 92%
    23:00 +22°C° 0.1 mm 1 m/S 671 mmHg 92%

    31 Januar, Freitag

    Zeit Temperatur Niederschläge Wind Luftdruck Luftfeuchtigkeit
    00:00 +22°C° 0.1 mm 1 m/S 670 mmHg 92%
    01:00 +21°C° 0.1 mm 1 m/S 670 mmHg 92%
    02:00 +21°C° 0.1 mm 1 m/S 670 mmHg 92%
    03:00 +21°C° 0.1 mm 1 m/S 670 mmHg 92%
    04:00 +21°C° 0.1 mm 1 m/S 669 mmHg 92%
    05:00 +21°C° 0 mm 1 m/S 670 mmHg 91%
    06:00 +21°C° 0 mm 1 m/S 670 mmHg 90%
    07:00 +21°C° 0 mm 1 m/S 671 mmHg 90%
    08:00 +24°C° 0 mm 1 m/S 671 mmHg 82%
    09:00 +26°C° 0 mm 1 m/S 672 mmHg 73%
    10:00 +29°C° 0 mm 1 m/S 673 mmHg 65%
    11:00 +29°C° 0.1 mm 1 m/S 672 mmHg 63%
    12:00 +30°C° 0.1 mm 1 m/S 672 mmHg 60%
    13:00 +31°C° 0.1 mm 2 m/S 671 mmHg 57%
    14:00 +30°C° 0.5 mm 1 m/S 671 mmHg 61%
    15:00 +29°C° 0.5 mm 1 m/S 670 mmHg 66%
    16:00 +29°C° 0.5 mm 1 m/S 669 mmHg 70%
    17:00 +27°C° 0.6 mm 1 m/S 670 mmHg 77%
    18:00 +25°C° 0.6 mm 1 m/S 670 mmHg 84%
    19:00 +23°C° 0.6 mm 1 m/S 670 mmHg 91%
    20:00 +23°C° 0.4 mm 1 m/S 670 mmHg 91%
    21:00 +22°C° 0.4 mm 1 m/S 671 mmHg 92%
    22:00 +22°C° 0.4 mm 1 m/S 671 mmHg 92%
    23:00 +22°C° 0.1 mm 1 m/S 671 mmHg 91%
    Mehr zeigen